Location: Newark
(25.4297°S, 49.2719°W)
Time: 02:06:07
(UTC+00:00)

Vanguard 1 Rocket - Pass Details

Date: 25 November 2019
Orbit: 650 x 4226 km, 34.3° (Epoch: 07 December)

Event Time Altitude Azimuth Distance (km) Brightness Sun altitude
Rises 11:34:38 0° 4° (N) 4,571 11.0 41.9°
Reaches altitude 10° 11:39:32 10° 28° (NNE) 4,230 11.2 43.0°
Maximum altitude 11:45:10 14° 57° (ENE) 4,571 11.8 44.3°
Drops below altitude 10° 11:52:27 10° 84° (E) 5,747 12.5 45.9°
Sets 12:01:40 0° 103° (ESE) 7,596 12.8 48.0°
